Find STARLINK-37998

NORAD ID: 799501026 Int'l Des: 2026-146C Constellation: starlink operational

当前视图

正在加载3D地球...

About STARLINK-37998

STARLINK-37998 (NORAD 799501026) is a starlink constellation satellite launched Jun 12, 2026

关于 STARLINK-37998

正在加载描述...

即将过境

Passes for default location (London). Set your location on the main map for personalized predictions.

高度历史

Loading altitude history...

两行轨道根数

1 99999C 2026146C 26176.65604167 .00551730 00000-0 836980-4 0 1769
2 99999 97.2863 22.3414 0011497 278.6304 269.6680 16.04112255 15
Epoch: Jun 25, 2026 • Age: 4 hours

当前状态

高度 267.9 km
速度 7.75 km/s
星下点 -24.75°S, 178.33°W
发射日期 Jun 12, 2026
运行时间 13 days
类型 internet

Most Searched